TimeCDT,TemperatureF,Dew PointF,Humidity,Sea Level PressureIn,VisibilityMPH,Wind Direction,Wind SpeedMPH,Gust SpeedMPH,PrecipitationIn,Events,Conditions,WindDirDegrees,DateUTC
12:53 AM,62.1,57.9,86,29.99,8.0,SSE,4.6,-,N/A,,Clear,160,2013-03-31 05:53:00
1:19 AM,60.8,57.2,88,30.00,6.0,South,3.5,-,N/A,,Mostly Cloudy,170,2013-03-31 06:19:00
1:32 AM,60.8,57.2,88,30.00,5.0,South,4.6,-,N/A,,Mostly Cloudy,170,2013-03-31 06:32:00
1:36 AM,60.8,57.2,88,-9999,-9999.0,North,-9999.0,-,N/A,,Mostly Cloudy,0,2013-03-31 06:36:00
1:45 AM,60.8,59.0,94,30.00,5.0,South,4.6,-,N/A,,Overcast,170,2013-03-31 06:45:00
1:53 AM,61.0,59.0,93,30.00,5.0,SSE,4.6,-,N/A,,Overcast,160,2013-03-31 06:53:00
2:53 AM,62.1,60.1,93,29.99,3.0,South,5.8,-,N/A,,Overcast,170,2013-03-31 07:53:00
3:00 AM,62.6,60.8,94,29.99,2.5,South,5.8,-,N/A,,Overcast,180,2013-03-31 08:00:00
3:16 AM,60.8,60.8,100,29.98,1.8,South,6.9,-,N/A,,Overcast,170,2013-03-31 08:16:00
3:42 AM,62.6,60.8,94,29.97,0.8,South,6.9,-,N/A,,Mist,180,2013-03-31 08:42:00
3:53 AM,62.1,61.0,96,29.97,0.8,South,5.8,-,N/A,,Mist,190,2013-03-31 08:53:00
4:53 AM,63.0,61.0,93,29.95,0.5,South,6.9,-,N/A,Fog,Fog,190,2013-03-31 09:53:00
5:17 AM,-9999,-9999,N/A,29.95,1.2,SSW,6.9,-,N/A,,Overcast,200,2013-03-31 10:17:00
5:40 AM,-9999,-9999,N/A,29.96,3.0,SW,6.9,-,N/A,,Overcast,220,2013-03-31 10:40:00
5:53 AM,-9999,-9999,N/A,29.96,3.0,SSW,5.8,-,N/A,,Overcast,200,2013-03-31 10:53:00
6:23 AM,-9999,-9999,N/A,29.97,2.5,SSW,6.9,-,N/A,,Overcast,210,2013-03-31 11:23:00
6:45 AM,-9999,-9999,N/A,29.97,3.0,SSW,5.8,-,N/A,,Overcast,200,2013-03-31 11:45:00
6:53 AM,-9999,-9999,N/A,29.97,4.0,SW,5.8,-,N/A,,Haze,230,2013-03-31 11:53:00
7:23 AM,64.4,62.6,94,29.96,1.8,South,6.9,-,N/A,,Overcast,170,2013-03-31 12:23:00
7:48 AM,64.4,62.6,94,29.96,2.5,South,6.9,-,N/A,,Overcast,190,2013-03-31 12:48:00
7:53 AM,64.0,62.1,93,29.95,3.0,South,8.1,-,N/A,,Overcast,190,2013-03-31 12:53:00
8:28 AM,64.4,62.6,94,29.96,5.0,SSW,8.1,-,N/A,,Overcast,200,2013-03-31 13:28:00
8:50 AM,64.4,62.6,94,29.95,7.0,SSW,6.9,-,N/A,,Overcast,210,2013-03-31 13:50:00
8:53 AM,66.0,63.0,90,29.94,7.0,SSW,6.9,-,N/A,,Overcast,200,2013-03-31 13:53:00
9:02 AM,66.2,62.6,88,29.95,8.0,SSW,9.2,-,N/A,,Overcast,200,2013-03-31 14:02:00
9:23 AM,66.2,62.6,88,29.95,9.0,SSW,8.1,-,N/A,,Overcast,200,2013-03-31 14:23:00
9:53 AM,68.0,62.1,81,29.96,10.0,SSW,8.1,-,N/A,,Overcast,210,2013-03-31 14:53:00
10:23 AM,68.0,62.6,83,29.96,10.0,SSW,5.8,-,N/A,,Overcast,210,2013-03-31 15:23:00
10:53 AM,69.1,62.1,78,29.94,10.0,SW,10.4,-,N/A,,Overcast,220,2013-03-31 15:53:00
11:53 AM,70.0,62.1,76,29.94,10.0,SW,11.5,18.4,N/A,,Overcast,220,2013-03-31 16:53:00
12:01 PM,71.6,62.6,73,29.94,10.0,South,10.4,-,N/A,,Overcast,190,2013-03-31 17:01:00
12:53 PM,70.0,63.0,78,29.98,3.0,WNW,5.8,16.1,0.04,Rain-Thunderstorm,Heavy Thunderstorms and Rain,290,2013-03-31 17:53:00
1:02 PM,66.2,62.6,88,30.00,7.0,NW,15.0,25.3,0.00,Rain-Thunderstorm,Light Thunderstorms and Rain,320,2013-03-31 18:02:00
1:14 PM,59.0,55.4,88,30.04,2.5,North,19.6,46.0,0.07,Rain-Thunderstorm,Heavy Thunderstorms and Rain,350,2013-03-31 18:14:00
1:22 PM,57.2,55.4,94,30.02,1.0,NNE,18.4,28.8,0.24,Rain-Thunderstorm,Heavy Thunderstorms and Rain,20,2013-03-31 18:22:00
1:35 PM,57.2,55.4,94,30.03,3.0,NNE,13.8,23.0,0.32,Rain-Thunderstorm,Thunderstorms and Rain,30,2013-03-31 18:35:00
1:51 PM,57.2,55.4,94,30.01,10.0,NNE,15.0,23.0,0.33,Rain-Thunderstorm,Light Thunderstorms and Rain,20,2013-03-31 18:51:00
4:24 PM,-9999,-9999,N/A,-9999,-9999.0,North,-9999.0,-,N/A,,Unknown,0,2013-03-31 21:24:00
4:53 PM,61.0,57.9,90,29.88,10.0,SSE,6.9,-,N/A,,Unknown,160,2013-03-31 21:53:00
5:00 PM,62.6,59.0,88,29.88,10.0,South,9.2,-,N/A,,Scattered Clouds,170,2013-03-31 22:00:00
5:19 PM,60.8,57.2,88,29.89,10.0,South,6.9,-,N/A,,Mostly Cloudy,190,2013-03-31 22:19:00
5:53 PM,61.0,57.0,87,29.91,10.0,Variable,3.5,-,N/A,,Overcast,0,2013-03-31 22:53:00
6:28 PM,60.8,57.2,88,29.92,10.0,Calm,Calm,-,N/A,,Overcast,0,2013-03-31 23:28:00
6:53 PM,61.0,57.0,87,29.92,10.0,Calm,Calm,-,N/A,,Overcast,0,2013-03-31 23:53:00
6:58 PM,60.8,57.2,88,29.92,10.0,Calm,Calm,-,N/A,,Overcast,0,2013-03-31 23:58:00
7:53 PM,60.1,57.0,90,29.93,10.0,West,3.5,-,N/A,,Mostly Cloudy,280,2013-04-01 00:53:00
8:53 PM,60.1,57.0,90,29.94,10.0,North,3.5,-,N/A,,Overcast,360,2013-04-01 01:53:00
9:53 PM,59.0,57.0,93,29.95,10.0,SE,3.5,-,N/A,,Overcast,140,2013-04-01 02:53:00
10:53 PM,59.0,57.0,93,29.95,10.0,Calm,Calm,-,N/A,,Scattered Clouds,0,2013-04-01 03:53:00
10:56 PM,57.2,55.4,94,29.95,2.0,Calm,Calm,-,N/A,,Scattered Clouds,0,2013-04-01 03:56:00
11:03 PM,57.2,57.2,100,29.95,1.2,Calm,Calm,-,N/A,,Partly Cloudy,0,2013-04-01 04:03:00
11:14 PM,57.2,57.2,100,29.96,2.0,Calm,Calm,-,N/A,,Clear,0,2013-04-01 04:14:00
11:23 PM,57.2,55.4,94,29.97,3.0,Calm,Calm,-,N/A,,Partly Cloudy,0,2013-04-01 04:23:00
11:26 PM,57.2,55.4,94,29.97,1.8,Calm,Calm,-,N/A,,Partly Cloudy,0,2013-04-01 04:26:00
11:35 PM,57.2,55.4,94,29.97,1.0,Calm,Calm,-,N/A,,Mist,0,2013-04-01 04:35:00
11:39 PM,57.2,55.4,94,29.97,2.0,Calm,Calm,-,N/A,,Partly Cloudy,0,2013-04-01 04:39:00
11:53 PM,57.0,55.0,93,29.98,5.0,Calm,Calm,-,N/A,,Mostly Cloudy,0,2013-04-01 04:53:00